Wind_Speed
9 10 10 11 12 11 10 9 9 8 7 6 6 6 6 6 7 9 10 12 13 13 14 14 15 16 17 18 18 18 18 18 18 18 18 18 18 17 17 17 17 17 17 16 16 16 16 16 16 16 16 17 17 18 18 18 18 18 19 19 19 19 20 20 20 20 21 20 20 20 19 19 19 19 19 19 19 19 20 20 20 21 21 20 20
9 10 10 10 10 11 10 9 8 7 7 6 6 6 7 7 8 9 11 12 13 14 14 15 16 16 17 17 17 18 18 18 18 18 18 18 18 17 17 17 17 17 17 17 17 17 17 17 17 17 18 18 18 19 19 19 19 19 19 20 20 20 20 21 21 21 21 20 20 20 20 20 19 19 19 19 19 18 18 18 18 18 18 18 18
9 9 9 8 9 9 9 8 7 6 6 6 6 7 7 8 9 10 12 13 13 14 14 15 15 15 15 15 15 16 17 17 17 17 17 17 17 16 16 16 16 16 16 17 17 17 17 17 16 17 17 17 17 18 18 19 19 19 19 19 19 20 20 20 20 20 20 20 20 20 20 20 20 20 20 20 19 19 18 18 17 16 16 16 16
10 10 9 8 8 8 8 8 7 7 7 7 7 8 8 9 10 11 12 12 13 13 13 13 13 13 13 13 13 13 14 14 15 15 15 15 15 15 15 15 15 15 15 15 16 16 16 15 15 16 16 16 16 16 17 17 18 18 19 18 19 19 19 19 20 19 19 19 19 19 19 19 19 19 19 20 19 19 18 18 18 17 16 16 15
9 9 9 8 8 7 7 7 7 7 8 8 8 9 9 10 11 11 12 12 12 12 11 11 11 11 11 11 11 11 12 12 13 13 13 13 13 13 13 13 13 14 14 14 15 15 15 15 15 15 15 16 16 16 17 17 17 18 18 18 19 19 19 19 19 19 19 19 19 19 19 18 19 19 19 19 18 17 17 17 17 17 16 16 15
9 9 9 8 8 7 7 6 7 7 8 9 9 10 10 11 11 11 11 11 11 10 10 10 11 11 11 11 11 11 11 11 12 12 12 12 12 12 12 12 12 13 13 14 14 14 14 14 14 14 14 15 15 15 16 17 17 17 18 18 19 19 19 19 19 19 19 19 19 19 19 19 19 19 19 18 17 17 17 16 16 16 16 15 15
9 9 9 8 8 8 7 7 7 8 9 10 11 11 11 12 11 11 11 10 10 10 10 10 11 11 11 11 11 11 11 11 11 12 12 12 11 11 12 12 12 12 12 13 13 12 12 12 13 12 13 13 14 14 15 15 15 16 17 18 18 19 19 19 19 18 18 18 18 18 18 18 17 18 17 17 17 17 17 16 16 16 15 15 14
7 9 9 9 9 8 8 8 8 8 10 11 11 11 12 12 11 10 10 10 9 10 10 11 11 11 11 11 11 11 11 12 12 12 12 12 12 11 11 11 11 11 12 13 13 13 13 13 12 12 12 13 13 13 14 14 15 17 18 18 18 19 19 19 19 18 19 18 18 18 18 17 17 17 16 15 15 15 15 15 15 15 14 15 15
6 7 8 8 8 8 7 8 8 9 10 11 12 12 12 11 10 10 9 9 9 9 10 11 11 11 11 11 11 11 12 12 12 13 13 13 13 13 12 11 11 11 12 13 14 15 15 15 14 13 13 13 14 14 15 16 17 18 19 20 20 20 20 20 20 20 20 20 20 19 19 18 17 17 16 16 15 14 14 14 13 13 13 13 14
4 5 7 8 8 7 8 8 8 9 10 11 12 12 12 10 9 9 8 8 8 9 9 10 10 11 11 11 11 11 12 12 13 14 14 15 15 15 15 13 13 12 13 13 14 15 16 16 16 16 16 16 16 17 18 19 20 21 22 22 22 23 23 23 24 24 24 24 23 23 23 22 21 19 18 17 16 15 14 13 13 12 12 12 13
1 2 5 7 8 7 8 8 9 9 10 11 11 11 11 10 8 8 8 8 7 7 8 8 9 9 10 11 11 11 12 12 14 14 15 16 16 17 17 16 14 13 13 12 13 14 14 15 16 17 17 18 19 19 20 21 22 23 23 23 23 23 23 24 24 25 25 25 25 25 25 25 25 24 23 22 20 19 17 16 14 13 13 13 13
1 0 2 5 7 7 8 9 9 10 10 10 11 11 11 9 8 7 7 7 6 6 6 7 8 8 9 10 10 11 11 12 13 13 13 15 16 16 17 16 15 13 12 12 12 13 14 15 16 18 19 20 20 21 21 21 21 22 22 22 21 21 21 21 22 22 23 23 24 24 24 25 25 25 25 25 25 23 22 20 19 17 15 15 14
1 1 2 4 6 7 8 9 9 10 10 10 11 11 10 9 8 6 6 6 5 4 5 5 6 7 8 8 8 9 10 10 10 11 11 13 14 15 16 16 15 14 13 12 13 14 15 16 17 19 19 19 19 18 18 18 19 19 19 19 19 20 20 20 20 21 22 22 23 23 23 23 24 24 24 25 25 24 23 23 22 21 20 18 17
2 1 3 3 5 7 8 9 10 10 10 11 11 11 10 9 8 6 5 5 4 3 3 3 4 5 6 6 6 7 7 8 7 8 8 9 11 12 13 15 15 14 13 12 13 14 15 16 17 17 16 16 15 15 15 15 16 17 17 18 19 19 20 20 21 21 22 22 24 25 25 25 25 25 25 25 25 24 23 23 23 23 22 21 21
3 0 2 3 5 6 8 9 10 10 11 11 11 11 10 9 8 6 5 4 3 2 1 2 2 3 3 3 4 4 5 5 4 4 4 5 6 8 10 12 13 12 11 11 11 12 13 13 13 12 12 12 11 11 12 13 14 16 17 18 19 20 20 21 20 21 22 23 26 27 28 28 28 28 28 27 26 25 24 23 22 22 22 22 23
3 1 2 4 5 6 8 9 9 10 11 11 11 11 10 9 8 7 5 4 3 2 1 0 1 2 2 2 2 2 2 2 2 1 1 1 2 4 7 9 10 10 9 8 7 8 8 7 7 7 7 7 8 9 10 12 13 15 17 18 18 19 20 20 19 19 20 23 26 28 30 31 31 31 30 29 29 28 26 24 23 22 22 22 23
2 1 1 4 6 6 7 9 9 10 11 11 11 11 10 9 8 8 7 5 4 4 3 3 2 2 2 2 2 1 1 1 2 2 3 3 2 3 5 7 8 8 8 7 6 5 5 6 7 7 8 8 9 10 11 12 13 14 15 16 18 19 20 19 18 17 18 21 25 28 31 32 32 32 31 30 30 29 28 26 25 23 22 21 22
3 1 1 3 6 7 8 9 10 10 11 11 11 11 11 10 9 9 8 7 7 6 6 5 5 4 4 4 4 3 3 3 4 5 5 6 5 5 5 6 7 8 8 7 7 6 6 7 8 8 8 9 9 10 10 11 11 12 13 15 17 19 19 18 17 16 16 19 23 28 31 33 33 32 30 30 30 29 28 26 25 24 23 22 21
4 2 0 2 4 7 9 9 10 10 11 11 11 12 12 11 11 11 10 9 9 9 8 8 7 7 6 6 5 5 5 5 6 7 7 7 7 6 6 6 7 7 7 7 7 7 6 7 7 8 9 10 10 10 9 9 10 11 13 15 17 18 18 18 17 17 17 20 24 28 32 35 33 30 28 27 28 28 27 25 24 23 23 22 21
4 3 1 1 2 6 8 10 11 11 11 12 12 13 13 13 13 13 12 12 12 12 11 10 9 9 8 8 7 7 7 7 7 8 8 9 9 8 7 7 7 7 7 7 7 7 7 8 9 11 11 11 11 9 9 9 9 11 12 14 16 18 18 18 18 18 19 21 25 30 34 34 31 27 25 25 25 25 25 24 23 23 23 23 23
4 2 2 2 2 4 6 8 10 11 12 13 13 13 14 14 14 15 15 14 14 14 14 13 12 11 10 10 9 8 8 8 8 9 9 9 9 9 8 8 8 7 8 8 8 9 9 10 11 12 13 12 10 8 7 8 10 11 11 13 15 18 19 19 19 20 21 23 27 32 33 32 29 26 25 23 23 23 23 22 22 22 22 23 24
3 2 2 2 2 4 5 6 8 10 12 13 14 14 15 15 16 16 17 17 17 16 16 15 13 12 12 11 11 10 9 9 9 9 9 9 8 9 9 8 8 8 9 9 10 9 10 11 12 13 13 11 9 7 6 7 8 10 11 13 16 19 20 20 20 21 22 24 29 32 32 30 29 28 26 25 23 23 23 22 22 22 22 24 25
1 1 2 2 3 3 4 5 6 8 9 11 12 13 14 16 16 17 18 18 18 18 17 16 15 14 13 12 12 11 10 10 9 8 8 8 9 9 9 9 10 10 10 10 10 10 10 11 12 13 12 11 9 8 7 8 8 9 11 14 17 19 20 20 21 22 23 26 30 32 31 29 28 28 27 26 25 24 24 24 24 25 26 27 29
3 2 2 2 2 2 3 5 5 6 7 7 9 10 12 14 15 16 17 18 18 18 18 17 15 14 14 13 13 12 11 10 9 8 9 9 10 10 11 11 11 11 10 10 10 10 11 11 12 12 12 10 10 10 10 10 11 11 12 14 17 19 20 20 21 22 24 27 30 31 30 28 28 28 28 27 26 26 26 26 27 29 31 33 35
5 5 4 1 2 4 4 4 4 5 6 6 7 8 9 11 13 14 15 16 16 17 16 15 15 15 14 13 13 12 11 10 9 9 10 11 12 12 12 12 12 11 11 11 11 11 12 12 11 11 11 10 11 12 13 14 15 15 14 15 18 19 20 21 21 23 25 29 32 32 31 30 29 29 30 29 30 29 29 30 30 32 34 36 38
8 8 6 4 5 6 5 4 4 5 6 6 6 7 8 10 11 12 13 14 14 15 15 14 14 14 14 13 12 12 11 11 11 11 12 13 13 13 14 14 13 12 12 12 11 12 12 13 12 12 12 13 13 14 15 16 18 18 17 17 19 21 22 23 23 26 28 31 32 32 31 31 31 32 32 33 34 34 34 35 35 37 38 39 40
12 11 9 8 8 8 6 5 5 6 6 6 6 6 7 9 10 11 12 12 13 14 14 13 13 12 12 12 11 11 11 12 12 13 13 14 14 15 15 15 14 14 13 13 13 13 13 14 14 14 14 15 15 16 16 17 18 19 19 19 20 23 24 25 25 27 29 30 31 32 32 32 32 32 33 34 35 37 38 39 39 41 41 42 42
14 12 10 11 11 10 8 7 7 6 6 6 6 6 7 9 9 9 10 11 12 12 12 11 10 10 10 11 11 12 12 13 13 14 14 15 15 16 17 17 17 16 16 16 15 15 15 16 17 16 17 17 18 18 18 18 18 18 19 21 22 24 26 26 26 27 29 30 31 31 32 33 33 33 33 34 35 37 39 40 41 43 44 44 45
14 13 12 14 14 12 10 10 8 7 6 6 6 6 7 8 8 8 8 8 9 9 9 8 7 8 9 11 12 13 13 14 15 15 16 17 17 18 18 19 18 18 18 18 18 17 18 19 20 19 19 20 20 20 20 20 19 19 19 21 24 26 27 28 27 27 29 31 32 33 33 34 35 35 36 36 37 38 40 41 43 44 45 46 48
12 15 16 16 16 13 11 11 9 7 6 6 6 7 8 9 8 8 7 7 7 7 7 8 8 10 11 12 13 14 15 16 17 17 18 18 19 19 20 20 19 20 20 20 20 20 21 22 22 22 21 22 22 22 22 23 22 22 22 24 26 28 30 30 30 30 30 32 34 35 36 37 37 38 39 39 40 40 42 43 45 46 47 49 51
13 17 17 15 15 14 11 9 9 8 7 7 7 7 8 9 9 9 9 9 9 9 10 11 12 13 14 15 16 17 17 18 18 18 19 19 20 20 20 20 20 21 22 22 22 22 23 24 24 24 24 25 26 26 26 26 26 26 27 28 30 31 32 33 34 34 35 36 37 39 40 40 41 42 42 43 43 43 44 46 47 49 50 52 55
16 18 17 13 13 12 9 9 10 11 11 10 9 8 9 10 11 12 13 13 13 13 14 14 15 16 17 17 18 18 19 19 20 20 20 21 21 20 21 21 20 22 24 24 23 23 24 26 26 26 27 28 29 29 30 31 31 31 31 32 34 35 36 37 37 37 39 40 41 43 44 45 46 47 47 48 47 48 48 50 51 52 53 56 57
18 19 17 12 10 10 9 11 13 14 14 14 11 10 10 11 12 12 14 15 16 17 18 18 19 19 19 19 20 20 21 21 22 22 23 24 24 24 23 22 22 24 26 25 25 26 26 28 29 29 30 31 31 33 34 35 36 36 36 37 40 41 40 39 39 40 41 42 44 45 46 48 51 52 53 54 53 53 54 55 56 57 58 58 56
19 18 17 13 10 10 12 14 14 15 15 14 13 12 11 12 12 13 14 15 17 19 20 21 21 20 20 21 22 23 24 24 25 26 27 28 28 28 26 25 25 27 28 28 28 28 29 30 31 32 33 34 34 35 36 37 39 40 40 42 45 45 43 41 40 42 43 44 46 48 49 51 55 57 58 59 59 59 59 60 61 61 62 60 56
18 18 20 17 12 12 14 14 15 15 15 14 15 14 13 13 14 15 15 16 17 19 21 22 22 22 22 23 25 27 28 28 28 29 30 30 30 29 28 27 28 29 30 31 32 31 32 33 34 34 35 36 37 37 38 39 40 42 43 45 48 48 45 42 42 44 45 46 48 50 51 54 58 60 62 63 63 63 63 64 64 64 63 61 56
18 20 21 19 15 13 13 13 15 16 16 17 17 16 15 15 16 16 17 19 20 20 22 24 24 25 26 27 29 30 31 31 31 31 32 31 31 30 29 28 30 31 32 33 34 33 34 35 35 36 37 39 40 41 42 44 45 45 46 47 49 49 46 45 45 46 46 47 50 52 54 56 59 62 64 66 66 66 67 67 66 65 62 58 55
20 21 21 20 19 16 12 13 17 17 17 18 19 18 18 17 18 18 19 20 22 22 23 25 26 28 29 30 32 33 33 33 33 33 33 32 31 30 29 29 31 33 34 35 35 37 37 37 38 39 40 42 44 45 47 49 48 48 48 49 50 49 46 45 46 46 47 50 52 54 56 58 61 65 67 69 69 69 69 69 67 64 60 56 54
19 19 19 20 22 21 17 16 19 19 19 20 20 20 19 18 19 20 21 21 22 23 25 26 28 30 31 31 33 34 34 33 34 35 35 33 32 31 30 30 32 34 35 37 38 39 40 41 42 42 43 46 48 50 49 49 49 49 50 51 52 49 46 45 46 48 50 52 54 56 59 62 65 68 71 71 71 71 70 69 66 61 57 55 54
17 18 18 19 22 25 23 21 21 22 23 23 22 20 19 19 20 22 23 23 23 24 26 28 30 31 31 31 33 34 33 33 35 36 36 35 34 32 31 32 33 35 37 39 40 41 42 44 46 47 49 52 54 56 55 53 52 52 51 51 51 49 47 49 52 54 55 54 56 58 62 65 69 71 72 72 73 72 71 67 63 59 55 54 53
20 21 22 23 24 26 26 26 25 26 26 25 24 22 20 21 22 23 24 25 25 26 28 30 32 33 32 32 34 34 34 35 37 38 38 37 36 34 33 34 35 37 39 40 41 44 45 47 48 49 53 55 56 56 55 52 50 49 48 50 50 50 52 55 57 58 56 56 59 63 66 69 72 73 73 74 74 72 68 64 60 57 54 53 53
25 26 27 27 26 27 28 28 27 26 26 25 24 23 23 23 25 26 26 27 28 29 29 31 34 35 35 35 35 35 35 37 39 40 41 39 38 37 37 37 38 39 40 41 43 45 46 46 47 49 51 52 51 48 46 46 47 47 48 50 51 52 54 54 55 56 57 58 63 69 71 73 74 74 75 74 72 68 64 60 57 55 53 52 51
28 28 30 30 30 30 30 30 30 30 29 28 27 26 26 27 28 29 30 30 30 31 32 33 35 36 37 37 36 35 35 36 39 41 42 42 42 42 42 41 40 41 42 43 43 44 44 45 47 48 49 50 49 45 44 46 47 48 49 50 49 50 52 52 54 58 61 64 68 72 73 74 75 75 74 71 66 62 59 56 54 53 51 50 48
29 30 31 33 33 33 33 33 33 33 34 33 32 31 32 32 32 32 32 31 31 33 35 36 36 37 38 38 38 38 37 38 40 42 42 43 44 45 45 44 43 42 43 44 45 44 45 46 48 48 49 48 47 45 45 46 47 47 48 49 50 52 53 55 58 62 66 69 72 73 74 75 75 73 69 64 59 56 54 52 51 49 48 47 46
30 31 32 34 35 36 35 35 35 35 36 36 36 36 37 36 35 34 34 33 34 35 37 37 38 38 39 40 42 42 42 42 42 42 44 46 46 46 47 46 43 42 43 45 46 47 47 47 48 47 47 46 46 47 48 48 49 49 50 51 52 54 56 59 63 67 69 71 72 74 74 74 72 67 61 56 53 52 50 49 47 46 45 45 46
32 32 33 35 36 37 38 38 38 38 37 37 38 39 39 39 38 38 37 37 37 38 39 39 39 40 40 41 43 45 45 46 45 45 48 50 48 47 47 45 42 42 45 47 48 49 49 49 49 48 47 47 49 50 50 50 51 52 53 54 56 58 61 64 67 69 71 72 73 73 73 70 65 59 54 51 49 48 46 45 44 44 45 45 45
37 37 36 36 38 39 40 40 40 40 40 40 39 40 40 41 41 41 40 40 40 40 41 42 42 42 43 44 45 46 47 48 48 49 52 54 51 48 46 45 44 46 48 48 49 50 50 50 50 49 49 50 51 52 52 53 55 56 58 59 60 62 65 67 69 71 72 73 73 71 68 62 56 51 48 47 46 44 43 43 44 44 44 45 45
44 43 41 39 40 41 42 43 43 43 43 43 43 43 42 42 43 43 43 43 43 43 44 45 45 44 44 45 46 48 48 48 48 49 53 53 51 47 45 45 47 48 49 49 50 50 49 50 51 52 52 53 54 55 56 57 60 62 62 63 65 66 68 69 70 72 72 72 69 64 58 52 48 45 44 43 43 42 43 43 44 44 44 45 45
47 47 46 44 43 44 44 45 46 46 46 46 46 46 45 44 44 45 45 45 45 45 46 47 46 44 43 43 44 45 45 45 45 46 46 47 46 45 46 47 47 48 48 49 49 49 50 51 53 54 55 56 57 58 60 62 64 65 65 66 67 68 69 70 70 71 70 66 60 54 48 45 43 41 41 41 41 42 43 43 43 44 44 44 45
49 50 50 50 50 50 50 49 48 49 49 49 48 48 47 46 45 46 48 47 47 46 46 46 46 45 44 44 43 43 43 44 45 45 45 45 46 47 47 46 45 47 48 48 48 49 51 53 55 56 58 59 60 60 62 64 65 66 67 68 68 69 70 70 69 67 63 56 49 44 41 40 39 39 39 40 41 42 42 43 43 43 43 43 44
53 54 54 53 52 53 53 52 52 51 50 49 49 49 50 49 48 49 50 49 48 47 47 47 47 46 45 45 45 44 44 45 45 46 46 47 47 47 46 45 46 48 49 49 50 51 53 55 57 59 60 61 61 62 64 65 67 68 68 69 69 70 69 68 64 59 51 45 40 38 37 37 38 38 39 40 41 41 41 41 42 42 42 42 42
52 54 54 53 53 51 49 50 52 53 51 50 49 50 51 51 50 51 51 51 50 50 50 49 48 47 47 47 46 46 46 45 45 46 46 47 47 47 47 48 49 50 50 51 53 55 56 58 60 61 62 62 63 65 66 68 69 69 69 69 69 67 64 59 52 45 40 37 36 36 36 37 37 38 39 40 40 40 40 40 40 40 40 40 40
Wind_Direction
119 122 117 117 118 114 114 112 108 106 100 89 79 71 67 67 71 74 78 82 82 82 82 82 80 79 79 79 79 80 80 79 78 78 79 78 78 78 79 81 82 83 84 83 83 81 79 76 73 71 69 68 67 66 65 64 62 61 60 58 57 57 56 55 53 52 52 52 54 55 56 57 57 56 56 56 55 55 54 54 54 55 56 59 61
113 116 117 118 122 121 120 118 111 107 100 92 87 84 84 85 85 87 86 86 86 87 85 84 81 79 79 78 79 80 80 80 80 80 80 80 80 79 79 80 80 80 80 80 80 78 77 75 73 72 70 69 68 68 67 66 66 65 63 61 61 59 58 57 55 54 52 51 51 52 52 53 56 56 56 54 53 53 53 52 50 50 49 49 52
110 116 124 124 126 127 125 121 115 110 104 99 97 95 97 98 97 95 92 91 90 88 85 82 80 78 77 76 75 76 76 78 79 78 78 78 78 78 77 77 77 76 76 76 76 74 73 72 71 71 70 68 66 66 65 65 65 65 64 62 61 61 58 57 56 54 53 51 49 48 47 48 49 50 51 51 50 49 49 49 49 49 47 45 43
114 122 130 129 130 131 129 124 120 118 112 108 106 107 108 106 105 101 98 96 92 88 85 81 80 77 75 74 73 73 73 73 75 74 73 73 73 72 72 72 72 72 71 72 73 72 72 71 70 70 69 67 65 64 63 62 61 60 60 58 58 58 57 56 55 54 52 51 49 47 45 43 44 45 44 44 43 42 43 43 44 44 44 44 43
118 126 128 128 132 132 131 130 126 123 120 117 117 116 117 114 110 108 104 100 95 90 85 81 78 77 75 74 73 73 73 72 73 73 71 69 68 68 68 68 69 69 68 67 67 67 67 66 64 64 63 62 60 59 58 57 56 56 55 54 53 53 53 53 52 52 50 49 47 46 43 41 40 41 40 40 37 36 37 36 35 36 37 38 38
125 128 128 131 134 131 133 135 131 131 128 126 125 124 124 121 117 114 109 102 96 89 85 82 79 77 77 76 74 72 72 72 72 72 71 69 68 67 67 66 66 67 67 66 64 64 64 63 63 61 61 60 58 56 56 55 55 54 53 52 51 50 50 49 49 48 47 47 45 45 43 41 39 38 37 35 33 32 31 29 28 27 27 28 29
132 130 132 135 134 134 139 139 136 138 136 132 132 131 129 126 123 119 112 104 97 91 88 85 82 79 78 76 75 74 73 72 72 71 71 69 67 65 65 64 63 65 66 63 61 64 67 68 68 67 67 67 65 63 61 60 59 58 56 53 51 50 49 47 46 45 45 45 44 43 42 41 39 39 37 33 31 29 27 25 24 22 20 19 19
134 134 136 135 132 136 142 142 144 145 140 137 137 135 133 131 128 122 114 105 99 97 93 87 84 81 80 78 76 77 76 75 74 72 71 67 65 64 64 64 65 66 63 60 62 67 70 72 72 74 74 73 72 70 68 67 66 65 62 59 56 54 52 49 46 44 43 42 41 40 39 37 35 34 34 32 30 27 24 22 20 19 17 15 12
141 143 138 134 133 139 143 145 148 148 145 143 142 140 137 136 132 124 115 109 104 101 97 91 87 84 83 82 81 82 81 80 78 75 74 71 69 68 68 70 71 70 68 69 70 70 71 72 72 74 75 75 75 74 74 72 71 69 66 63 60 55 52 48 44 41 37 35 33 31 29 28 28 26 26 25 24 22 20 19 16 11 10 10 6
148 150 142 136 137 144 146 151 153 152 152 150 148 146 142 140 136 128 119 114 111 106 100 93 89 86 87 88 87 87 85 85 83 80 79 77 74 72 71 73 76 78 80 80 77 74 73 73 74 75 76 78 77 76 74 72 70 67 64 61 57 53 49 44 40 35 32 29 26 23 20 17 15 14 13 12 12 12 12 12 10 4 360 359 358
83 163 152 144 145 152 153 157 159 158 159 158 156 152 148 146 140 131 124 120 117 111 103 95 90 86 87 90 91 91 91 91 89 86 83 80 77 74 72 74 79 84 86 83 78 76 76 76 77 78 78 78 78 76 74 71 68 64 60 56 52 48 44 40 36 32 28 26 24 21 18 14 10 7 5 2 360 359 357 357 358 357 352 350 349
48 271 190 160 153 158 161 164 166 165 166 166 165 159 155 153 147 139 130 126 123 116 104 95 89 84 84 88 91 93 96 97 95 91 85 80 76 75 73 74 78 84 86 83 82 82 83 84 84 83 83 82 81 79 74 70 65 60 54 50 45 42 39 36 33 29 26 23 20 18 16 12 8 5 3 0 358 354 349 346 344 343 343 342 341
85 213 223 189 165 163 169 171 171 173 174 175 174 168 164 161 156 150 141 135 128 116 103 91 84 79 79 83 88 93 98 102 101 93 85 79 76 73 72 72 73 76 80 82 85 88 91 93 92 91 90 87 83 78 72 65 60 54 49 43 38 34 30 27 25 23 21 18 14 12 10 7 3 360 358 357 355 353 347 343 338 335 334 334 333
57 192 220 208 180 170 175 179 178 179 181 183 183 178 174 170 166 163 154 149 139 116 99 85 76 72 70 74 81 87 94 101 103 93 84 80 77 73 72 71 71 71 73 77 84 89 91 91 90 89 86 82 75 68 62 55 47 39 33 29 25 21 18 15 14 14 13 12 10 7 3 0 357 354 353 352 350 348 345 342 338 333 330 328 326
37 141 224 222 201 182 182 186 185 186 187 189 192 189 184 181 179 179 174 169 162 143 107 77 61 58 58 59 69 81 96 108 112 103 90 81 76 73 70 68 68 68 69 74 80 82 80 77 76 75 71 66 59 50 40 30 22 16 13 12 11 10 8 5 5 8 10 10 8 5 1 358 354 351 349 348 347 345 342 340 337 333 330 326 323
22 350 235 226 216 198 191 192 192 194 193 196 200 199 196 193 192 194 196 199 204 219 238 329 2 15 23 19 38 67 105 128 149 153 107 66 64 61 57 56 56 55 53 55 60 62 56 46 43 40 30 24 19 11 3 357 356 357 359 1 1 0 359 358 359 2 7 8 7 5 1 358 354 350 347 346 345 343 341 339 336 333 331 328 324
22 341 234 227 222 212 203 199 199 200 200 203 207 208 209 207 206 209 213 220 227 240 258 270 283 303 319 323 321 314 280 247 253 260 272 289 316 356 19 30 27 19 17 14 10 13 6 353 354 351 337 334 338 339 338 338 341 346 351 354 354 352 351 352 353 356 0 3 2 360 358 355 352 348 345 344 344 342 340 338 335 333 331 328 325
42 43 205 224 223 217 214 209 206 205 206 209 213 216 219 221 222 224 227 233 240 248 258 266 273 281 295 302 297 290 279 266 264 265 267 277 291 311 334 353 354 350 354 358 353 353 352 348 346 339 329 332 337 338 340 341 343 347 350 349 347 344 344 345 345 346 349 351 352 352 351 349 346 344 342 341 342 341 339 337 335 333 331 329 327
55 51 163 219 223 221 221 219 214 212 212 214 218 223 226 229 233 235 238 242 246 252 258 263 271 276 283 291 290 283 277 267 265 264 265 270 277 290 307 322 328 332 341 349 351 355 359 357 348 342 343 348 350 349 349 350 350 349 346 343 340 339 339 340 339 338 339 340 343 344 343 341 339 338 338 338 339 340 339 336 336 335 333 331 330
67 65 133 202 230 224 222 224 223 221 219 220 222 226 230 234 237 241 244 247 250 255 258 262 267 273 278 284 286 281 273 268 266 266 265 266 271 281 293 303 314 323 332 335 335 340 348 350 346 344 346 347 347 348 347 345 344 343 342 343 342 341 339 339 338 336 335 335 338 339 339 340 340 338 336 335 336 337 338 337 336 336 335 333 331
73 99 161 181 233 233 224 225 228 228 227 227 228 231 235 238 242 245 247 250 253 256 260 263 265 269 274 279 282 279 272 268 267 268 267 268 272 279 286 297 307 315 322 322 322 327 336 342 342 341 340 338 337 337 338 338 339 341 346 351 351 348 344 342 340 338 336 336 337 339 340 342 345 344 341 336 332 333 335 336 336 336 336 334 333
78 117 159 172 210 233 231 228 230 234 234 233 234 235 238 241 244 248 250 251 254 257 260 263 265 267 269 275 278 275 272 270 270 269 268 269 273 277 283 294 301 306 313 316 318 326 332 338 340 338 337 335 330 326 330 338 344 348 351 353 354 352 349 345 341 338 336 336 338 340 341 342 344 346 346 342 335 329 327 329 330 330 330 328 327
358 129 168 193 207 221 232 234 232 235 238 239 241 240 242 244 246 249 252 253 255 257 259 263 264 265 266 270 273 272 272 272 270 268 266 268 272 275 283 291 297 301 308 313 317 323 329 334 337 337 335 332 323 320 327 335 343 348 349 349 352 352 350 346 342 337 335 334 336 339 339 339 339 342 343 343 340 332 325 321 319 318 317 316 316
265 261 231 226 243 242 244 247 247 249 248 246 248 249 249 250 249 250 253 255 256 258 260 262 263 263 264 267 269 270 270 269 266 264 263 266 271 276 282 287 291 297 303 309 313 316 319 325 329 330 332 330 321 316 317 320 325 332 338 343 347 348 347 343 339 337 335 337 339 341 339 336 334 334 336 338 338 336 329 323 318 314 311 310 310
245 251 248 239 261 251 240 246 256 265 267 261 260 262 260 258 256 254 253 254 255 257 259 260 259 259 262 264 265 267 266 264 262 262 264 268 272 277 282 285 289 294 299 303 306 308 309 314 317 318 322 324 319 313 308 305 307 313 323 331 336 340 340 338 336 336 338 340 343 344 343 339 334 330 328 329 329 329 327 324 320 317 314 311 308
235 240 236 213 225 240 236 236 246 254 263 268 271 272 271 268 264 260 257 254 253 253 252 252 253 256 260 261 260 260 259 259 261 264 268 271 275 279 282 284 289 292 295 297 299 300 301 304 306 307 311 316 316 315 309 302 298 300 307 315 322 328 332 333 335 336 339 341 342 343 343 341 337 333 329 326 324 322 321 320 318 317 316 313 310
234 235 235 221 217 224 226 228 236 247 258 269 277 279 277 274 270 266 263 258 253 250 248 248 250 254 257 256 254 254 257 261 265 268 271 275 278 281 283 286 289 290 290 291 292 294 295 297 299 302 306 311 312 314 313 308 302 299 300 303 310 318 324 328 331 334 337 339 340 340 340 338 337 334 331 328 325 322 320 319 318 317 317 315 313
249 242 240 235 224 216 218 223 228 240 252 265 278 283 278 276 276 272 268 263 257 252 248 246 249 252 254 255 256 260 263 267 270 273 276 279 281 283 285 287 289 288 288 288 288 289 290 291 294 299 303 306 307 308 310 310 306 302 299 299 302 310 316 320 323 328 333 335 336 337 336 335 333 331 329 327 325 323 321 319 317 317 317 316 314
265 259 252 247 237 220 214 221 225 232 244 260 271 276 276 276 277 271 266 262 255 249 244 243 247 253 257 260 264 268 271 273 276 279 281 283 284 286 287 288 288 288 287 286 286 286 287 288 290 296 300 303 304 306 308 309 307 302 300 299 301 305 309 311 313 318 325 330 333 333 332 331 330 328 327 325 324 322 321 319 317 316 315 314 313
263 262 258 254 253 244 229 227 232 236 242 256 263 264 267 271 271 265 256 250 248 250 253 255 257 259 261 265 268 271 274 277 279 281 282 284 285 287 288 288 288 288 287 285 285 285 287 288 291 296 299 300 302 305 307 308 306 304 302 303 304 304 305 305 305 308 313 320 326 329 329 329 328 327 325 323 322 322 321 320 318 317 315 313 312
254 255 257 258 262 265 261 254 261 264 259 258 258 259 260 262 262 257 247 243 248 259 266 267 265 265 265 268 270 272 274 276 278 280 281 283 284 286 287 288 289 288 286 285 285 286 288 289 292 296 298 299 301 303 305 304 303 302 302 304 305 305 304 302 301 303 304 309 317 323 324 326 327 326 325 323 322 321 321 320 319 318 316 313 312
258 254 254 256 261 271 276 265 261 266 265 260 255 254 257 259 259 256 253 253 255 262 268 268 267 268 269 270 270 271 272 274 275 277 279 280 283 285 287 289 291 288 285 286 287 289 290 290 292 293 294 295 297 298 298 298 298 299 299 301 303 304 302 301 300 300 300 302 309 315 318 322 325 325 325 324 323 322 322 322 321 319 317 314 312
257 256 256 259 262 265 262 250 248 250 253 257 261 260 259 262 263 262 261 262 262 264 266 267 268 269 270 271 271 270 271 273 275 278 281 282 283 285 287 290 292 290 289 291 292 291 292 291 290 290 289 290 291 292 292 293 294 296 295 297 302 303 301 300 299 299 298 301 305 309 314 318 322 323 324 324 324 323 323 323 321 320 318 316 313
260 261 265 269 265 260 255 253 254 253 252 257 262 262 262 265 267 268 266 265 266 266 266 266 268 270 271 272 272 272 273 275 278 283 285 285 285 286 289 292 294 294 296 297 295 293 292 291 288 287 288 288 289 290 292 293 293 294 294 296 302 303 299 298 299 298 298 300 303 306 310 314 318 321 322 323 324 323 323 322 321 320 319 317 314
269 271 271 271 267 265 266 266 269 269 268 268 266 264 265 266 267 269 268 266 265 267 268 269 270 271 271 271 273 274 276 278 280 284 285 286 287 289 293 296 296 295 297 298 295 293 292 291 290 291 292 292 293 292 293 293 293 294 296 298 302 303 300 296 298 299 299 299 301 304 307 311 315 318 320 322 322 322 322 321 320 319 318 316 313
263 269 272 272 270 267 267 270 272 271 270 270 268 266 265 266 268 270 270 269 266 266 268 270 271 271 271 271 272 274 277 279 283 285 286 287 288 290 294 297 295 294 294 295 294 293 292 293 294 296 295 294 293 292 292 292 292 294 298 298 300 303 301 296 297 299 298 297 299 303 306 309 312 316 318 320 320 321 320 319 318 318 317 315 313
255 264 272 275 275 272 264 263 267 267 264 264 265 265 264 266 270 272 272 272 271 269 268 269 271 271 271 272 274 275 278 282 285 286 286 286 287 289 293 294 293 292 291 291 293 294 295 296 296 297 297 296 294 293 293 293 293 294 296 298 300 303 301 297 297 297 296 296 299 303 305 308 311 314 316 318 319 318 318 318 318 318 316 314 312
249 258 268 273 277 278 271 263 263 265 264 262 262 263 264 266 270 273 274 274 274 274 272 271 271 272 274 277 280 281 282 285 286 285 285 286 286 289 292 292 290 289 290 292 295 296 297 298 298 298 298 298 297 296 295 294 293 293 295 297 300 301 299 296 298 297 296 297 300 302 305 307 310 313 315 316 317 316 316 317 318 317 315 313 311
261 262 262 261 264 268 269 264 261 262 263 263 263 264 266 268 270 272 274 275 275 274 274 272 271 272 276 281 283 283 284 285 285 285 286 286 285 288 289 287 286 288 291 293 295 297 298 299 300 300 300 299 299 298 296 295 293 293 295 297 299 299 298 299 300 299 297 299 301 303 305 308 311 313 314 315 315 316 317 317 317 316 313 311 309
273 269 263 256 254 257 260 260 260 260 261 262 262 263 265 267 268 269 271 274 274 272 272 273 273 274 276 278 280 281 283 285 284 285 286 284 284 286 285 283 285 288 291 294 297 300 302 301 302 303 303 304 304 298 294 295 294 293 295 298 298 299 300 301 300 298 297 299 303 306 307 310 312 313 313 314 314 316 317 317 316 313 311 309 307
269 269 267 264 260 259 260 260 261 263 264 264 264 264 264 265 266 266 267 267 268 268 269 271 274 277 278 279 280 282 285 287 288 289 288 285 284 285 285 285 287 289 293 297 300 303 304 302 302 303 304 308 309 303 298 299 298 296 298 300 300 301 301 299 297 297 297 300 304 307 309 310 311 312 313 314 315 316 316 315 313 311 309 307 305
262 263 266 266 265 265 265 264 265 266 268 270 271 270 268 265 265 266 266 266 268 270 271 271 273 276 278 280 282 284 286 286 287 288 287 285 284 286 287 288 289 292 297 300 300 300 301 300 301 303 304 306 307 306 304 304 302 301 303 304 304 302 299 296 296 298 300 303 305 307 309 310 310 311 313 314 315 315 313 312 310 308 307 306 303
256 257 260 264 265 265 265 265 265 266 267 269 270 270 268 267 267 267 269 271 272 272 272 272 273 275 277 280 281 281 280 280 281 283 284 284 285 286 287 287 288 291 296 297 296 296 298 298 299 302 304 303 303 304 305 303 301 301 302 303 302 301 298 297 298 300 302 304 306 307 308 309 310 312 314 314 313 312 310 309 308 306 305 303 302
253 255 256 259 262 263 263 263 263 262 263 265 266 266 267 268 269 269 269 270 271 271 272 274 275 276 277 279 281 281 280 282 283 284 283 282 283 286 287 286 286 289 292 293 293 295 296 297 299 301 301 301 302 304 303 301 301 301 301 301 301 300 299 299 300 302 303 305 306 307 308 309 311 313 313 312 309 307 307 306 306 305 304 303 303
252 254 255 256 258 260 261 262 262 261 261 261 262 264 266 267 268 269 270 271 272 273 275 276 276 277 278 280 283 284 284 284 284 283 282 280 281 285 286 286 287 291 292 293 294 295 297 299 300 301 301 301 302 302 301 301 301 300 300 300 299 299 299 300 301 303 304 305 306 307 308 310 311 311 310 307 305 305 305 305 305 305 305 304 304
259 256 255 255 256 258 259 260 260 261 260 260 261 263 264 266 268 270 271 272 272 273 274 275 277 278 279 280 282 283 285 285 284 285 285 282 279 281 282 283 287 292 294 294 294 296 298 299 300 301 302 302 301 300 300 300 300 300 300 300 300 300 301 302 303 304 304 305 306 307 308 310 309 307 305 304 304 305 306 306 306 305 304 303 303
265 260 256 255 255 256 258 259 259 259 260 260 260 261 263 265 268 269 270 271 272 273 274 275 277 279 281 282 283 282 284 286 287 288 289 285 281 282 284 286 289 293 294 293 294 295 296 297 298 300 301 299 298 299 300 300 300 301 301 301 301 301 302 302 303 303 304 305 306 307 308 307 305 304 304 305 306 307 306 305 304 303 304 305 306
264 260 256 256 257 256 255 256 257 259 260 261 262 263 264 265 267 267 268 269 271 272 272 274 278 281 285 287 287 285 285 286 287 289 291 290 288 288 290 292 293 292 291 291 292 293 293 294 296 297 296 295 296 298 299 299 299 299 299 300 300 301 302 302 302 303 304 306 306 307 306 304 303 304 306 306 306 305 304 304 304 306 307 308 309
262 259 257 258 260 257 255 256 257 258 260 262 264 265 266 266 267 267 267 268 270 272 274 276 279 283 286 287 288 287 286 287 288 290 292 293 292 292 293 293 292 290 290 290 290 291 291 292 293 293 293 293 295 296 296 297 297 298 299 299 300 301 301 301 302 304 305 305 305 304 303 303 304 306 306 305 305 305 305 306 307 308 309 309 310
262 260 259 258 257 255 254 255 256 257 258 260 263 265 267 268 268 268 269 271 273 275 276 278 281 283 285 286 287 287 287 288 289 291 291 292 292 292 293 292 290 289 289 290 290 290 290 291 291 292 292 294 295 296 296 296 297 298 299 299 300 300 301 301 302 303 302 302 301 302 303 304 306 306 305 305 305 306 307 308 308 309 310 311 313
262 260 259 257 254 253 254 253 254 256 257 257 259 263 266 268 269 270 271 274 276 277 277 279 281 283 285 286 287 288 289 289 289 289 290 290 291 291 291 290 290 289 289 290 291 291 291 291 292 293 294 295 296 296 296 296 296 297 297 297 298 299 300 301 301 300 299 299 301 303 304 305 305 305 306 306 307 307 308 309 309 311 312 313 315
Height
5790 5790 5790 5790 5790 5791 5792 5792 5793 5793 5794 5794 5795 5795 5795 5795 5794 5794 5794 5793 5793 5793 5792 5792 5792 5791 5791 5790 5790 5789 5789 5788 5788 5787 5787 5787 5786 5786 5786 5786 5786 5786 5785 5785 5785 5784 5784 5783 5783 5782 5782 5782 5782 5781 5781 5780 5780 5779 5779 5779 5779 5778 5778 5778 5778 5777 5777 5777 5777 5777 5776 5776 5775 5775 5774 5774 5774 5773 5773 5772 5772 5772 5772 5772 5772
5791 5791 5791 5792 5792 5792 5793 5793 5793 5794 5794 5795 5795 5795 5796 5795 5795 5795 5795 5794 5794 5794 5794 5794 5793 5793 5792 5792 5791 5791 5790 5790 5790 5789 5789 5789 5788 5788 5788 5788 5788 5787 5787 5787 5786 5786 5785 5785 5784 5784 5784 5783 5783 5783 5782 5782 5782 5781 5781 5781 5780 5780 5780 5780 5779 5779 5779 5779 5778 5778 5778 5778 5777 5777 5776 5776 5775 5775 5775 5774 5774 5774 5773 5773 5773
5792 5792 5793 5793 5794 5794 5794 5794 5794 5795 5795 5795 5796 5796 5796 5796 5796 5796 5796 5796 5796 5795 5795 5795 5795 5794 5794 5793 5793 5793 5792 5792 5791 5791 5791 5790 5790 5790 5790 5789 5789 5789 5789 5788 5788 5787 5787 5787 5786 5786 5785 5785 5784 5784 5784 5784 5783 5783 5783 5782 5782 5782 5782 5782 5781 5781 5781 5781 5780 5780 5780 5779 5779 5778 5778 5777 5776 5776 5776 5775 5775 5775 5775 5775 5774
5792 5793 5793 5794 5794 5795 5795 5795 5795 5795 5796 5796 5797 5797 5797 5798 5798 5798 5797 5797 5797 5797 5797 5797 5796 5796 5795 5795 5794 5794 5794 5793 5793 5793 5792 5792 5792 5792 5791 5791 5791 5790 5790 5790 5789 5789 5788 5788 5788 5787 5787 5786 5786 5786 5785 5785 5785 5784 5784 5784 5783 5783 5783 5783 5783 5783 5782 5782 5782 5781 5781 5780 5780 5779 5779 5778 5778 5777 5777 5776 5776 5776 5776 5776 5776
5793 5793 5794 5794 5795 5795 5795 5795 5796 5796 5796 5797 5797 5798 5798 5799 5799 5799 5799 5799 5799 5799 5799 5798 5798 5797 5797 5796 5796 5796 5795 5795 5794 5794 5794 5794 5793 5793 5793 5792 5792 5792 5791 5791 5790 5790 5789 5789 5789 5789 5788 5788 5788 5788 5787 5787 5786 5786 5785 5785 5785 5784 5784 5784 5783 5783 5783 5783 5782 5782 5782 5781 5781 5780 5780 5779 5779 5779 5778 5777 5777 5777 5777 5777 5777
5793 5794 5794 5795 5795 5795 5796 5796 5796 5797 5797 5798 5798 5799 5799 5800 5800 5800 5800 5800 5800 5800 5800 5799 5799 5799 5798 5798 5797 5797 5797 5796 5796 5796 5795 5795 5795 5794 5794 5794 5793 5793 5793 5792 5791 5791 5791 5790 5790 5790 5790 5790 5790 5789 5789 5789 5788 5788 5787 5787 5786 5786 5785 5785 5784 5784 5783 5783 5783 5782 5782 5782 5781 5781 5781 5781 5780 5780 5779 5779 5778 5778 5777 5777 5777
5794 5794 5795 5795 5796 5796 5796 5797 5797 5798 5798 5799 5799 5800 5801 5801 5801 5801 5802 5802 5802 5801 5801 5801 5800 5800 5800 5799 5799 5798 5798 5798 5797 5797 5797 5796 5796 5796 5795 5795 5794 5794 5794 5793 5793 5792 5792 5791 5791 5791 5791 5791 5790 5790 5790 5790 5789 5789 5788 5788 5787 5787 5786 5786 5785 5785 5784 5784 5783 5783 5783 5782 5782 5782 5782 5781 5781 5780 5780 5780 5779 5779 5778 5778 5778
5794 5795 5795 5795 5796 5796 5797 5797 5798 5799 5799 5799 5800 5801 5802 5802 5802 5803 5803 5803 5803 5803 5802 5802 5802 5801 5801 5801 5800 5800 5799 5799 5799 5798 5798 5798 5797 5797 5796 5796 5796 5795 5795 5794 5794 5793 5793 5792 5792 5792 5792 5791 5791 5791 5791 5791 5790 5790 5789 5789 5789 5788 5788 5787 5787 5786 5786 5785 5785 5784 5783 5783 5782 5782 5782 5782 5782 5781 5781 5780 5780 5780 5779 5779 5778
5794 5794 5795 5795 5796 5796 5797 5798 5799 5799 5800 5800 5801 5802 5803 5803 5804 5804 5804 5804 5804 5804 5803 5803 5803 5803 5802 5802 5802 5801 5801 5800 5800 5800 5799 5799 5799 5798 5798 5797 5797 5796 5796 5796 5795 5795 5794 5794 5793 5793 5793 5792 5792 5792 5792 5792 5791 5791 5791 5790 5790 5790 5789 5789 5788 5788 5787 5786 5785 5785 5784 5784 5783 5783 5782 5782 5782 5781 5781 5780 5780 5780 5779 5779 5779
5795 5795 5795 5795 5796 5797 5797 5798 5799 5800 5801 5801 5802 5803 5803 5804 5805 5805 5805 5805 5805 5805 5805 5804 5804 5804 5804 5803 5803 5803 5802 5802 5801 5801 5801 5800 5800 5799 5799 5798 5798 5797 5797 5797 5797 5796 5796 5795 5795 5794 5794 5794 5794 5794 5793 5793 5793 5792 5792 5791 5791 5791 5790 5790 5789 5788 5788 5787 5786 5785 5785 5784 5783 5783 5782 5782 5782 5781 5781 5781 5780 5780 5779 5779 5778
5796 5796 5796 5796 5796 5797 5798 5799 5800 5800 5801 5802 5803 5803 5804 5805 5805 5806 5806 5806 5806 5806 5806 5805 5805 5805 5805 5805 5804 5804 5804 5803 5803 5803 5802 5802 5802 5801 5800 5800 5799 5799 5798 5798 5798 5798 5797 5797 5796 5796 5796 5795 5795 5795 5795 5794 5794 5794 5793 5793 5792 5792 5791 5791 5790 5790 5789 5788 5787 5786 5786 5785 5784 5783 5782 5781 5781 5780 5780 5780 5779 5779 5778 5778 5778
5796 5797 5797 5797 5797 5798 5798 5799 5800 5801 5802 5803 5803 5804 5805 5805 5806 5807 5807 5807 5807 5807 5806 5806 5806 5806 5806 5805 5805 5805 5805 5804 5804 5804 5804 5803 5803 5802 5802 5801 5801 5800 5800 5800 5799 5798 5798 5798 5797 5797 5797 5796 5796 5796 5796 5795 5795 5794 5794 5794 5793 5792 5792 5791 5791 5790 5790 5789 5788 5787 5786 5786 5785 5784 5783 5781 5780 5779 5778 5778 5777 5777 5777 5777 5776
5797 5797 5798 5798 5798 5798 5799 5800 5801 5801 5802 5803 5804 5805 5805 5806 5806 5807 5807 5807 5807 5807 5807 5807 5807 5806 5806 5806 5806 5806 5805 5805 5805 5805 5805 5804 5804 5803 5803 5803 5802 5802 5801 5801 5800 5799 5799 5798 5798 5798 5797 5797 5797 5797 5797 5796 5796 5795 5795 5794 5793 5793 5792 5791 5791 5790 5789 5789 5788 5787 5786 5786 5785 5784 5783 5782 5781 5780 5779 5777 5776 5775 5775 5775 5774
5797 5798 5798 5799 5799 5799 5800 5800 5801 5802 5803 5804 5804 5805 5806 5806 5807 5807 5808 5808 5808 5808 5808 5808 5807 5807 5807 5807 5806 5806 5806 5806 5806 5806 5805 5805 5805 5805 5804 5804 5803 5803 5802 5802 5801 5800 5800 5800 5800 5799 5799 5799 5798 5798 5797 5797 5796 5796 5795 5794 5793 5792 5791 5791 5790 5789 5789 5788 5787 5786 5785 5785 5784 5783 5782 5781 5780 5780 5779 5778 5776 5775 5773 5773 5772
5798 5798 5799 5799 5799 5800 5800 5801 5801 5802 5803 5804 5805 5805 5806 5806 5807 5807 5808 5808 5808 5808 5808 5808 5808 5808 5808 5807 5807 5807 5807 5807 5807 5806 5806 5806 5805 5805 5805 5804 5804 5804 5804 5803 5803 5803 5803 5802 5802 5801 5800 5800 5799 5798 5798 5797 5797 5796 5795 5794 5793 5792 5791 5790 5789 5789 5788 5787 5787 5786 5785 5784 5783 5782 5781 5780 5779 5778 5778 5777 5776 5774 5773 5771 5770
5798 5798 5798 5799 5800 5800 5801 5801 5802 5802 5803 5804 5805 5805 5806 5807 5807 5807 5808 5808 5808 5808 5808 5808 5808 5808 5808 5808 5808 5808 5807 5807 5807 5807 5806 5806 5805 5805 5805 5805 5804 5804 5804 5804 5804 5804 5803 5803 5803 5802 5801 5800 5799 5799 5798 5797 5797 5796 5795 5794 5793 5792 5791 5790 5789 5789 5788 5787 5786 5786 5785 5784 5783 5781 5780 5779 5778 5777 5776 5775 5775 5774 5772 5771 5769
5797 5798 5798 5799 5799 5800 5801 5801 5802 5802 5803 5804 5804 5805 5806 5807 5807 5807 5807 5808 5808 5808 5808 5808 5808 5808 5808 5808 5808 5808 5808 5807 5807 5807 5806 5806 5805 5805 5805 5805 5805 5804 5804 5804 5804 5803 5803 5803 5802 5801 5801 5800 5799 5798 5798 5797 5796 5796 5795 5794 5793 5792 5791 5790 5790 5789 5788 5787 5786 5785 5784 5783 5782 5781 5779 5778 5777 5775 5774 5773 5772 5772 5772 5771 5769
5797 5798 5798 5799 5799 5800 5801 5801 5802 5802 5803 5803 5804 5805 5806 5806 5807 5807 5807 5808 5808 5808 5808 5808 5808 5808 5808 5808 5808 5808 5808 5808 5807 5807 5806 5806 5805 5805 5805 5805 5805 5805 5804 5804 5803 5802 5802 5802 5801 5801 5800 5799 5798 5797 5797 5796 5796 5795 5794 5793 5792 5791 5790 5790 5789 5788 5788 5787 5786 5785 5784 5783 5782 5780 5779 5777 5776 5775 5773 5772 5771 5770 5770 5770 5769
5797 5798 5798 5799 5799 5799 5800 5801 5801 5802 5802 5803 5803 5804 5805 5806 5806 5807 5807 5807 5807 5808 5808 5808 5808 5808 5808 5808 5808 5808 5808 5807 5807 5806 5806 5806 5806 5806 5805 5805 5805 5805 5804 5804 5803 5802 5802 5802 5801 5801 5800 5798 5797 5797 5796 5795 5795 5794 5793 5792 5792 5791 5790 5789 5788 5787 5787 5786 5785 5785 5784 5783 5781 5779 5778 5777 5775 5774 5773 5771 5770 5769 5769 5768 5768
5798 5798 5798 5798 5798 5799 5800 5800 5801 5801 5801 5802 5802 5803 5804 5804 5805 5806 5806 5806 5807 5807 5807 5807 5807 5807 5808 5808 5807 5807 5807 5807 5807 5806 5806 5806 5806 5806 5805 5805 5805 5804 5803 5803 5802 5802 5801 5801 5800 5800 5799 5798 5797 5796 5795 5794 5794 5793 5793 5792 5791 5790 5789 5788 5788 5787 5786 5785 5785 5784 5783 5781 5779 5778 5776 5775 5774 5773 5772 5771 5770 5769 5768 5767 5766
5798 5798 5798 5798 5798 5799 5799 5799 5800 5800 5801 5801 5801 5802 5803 5803 5804 5804 5805 5805 5805 5806 5806 5806 5807 5807 5807 5807 5807 5807 5807 5806 5806 5805 5805 5805 5805 5805 5805 5805 5804 5803 5803 5802 5801 5801 5800 5799 5799 5798 5797 5797 5796 5795 5795 5794 5793 5793 5792 5792 5791 5790 5789 5788 5787 5786 5785 5784 5784 5783 5781 5779 5778 5776 5775 5774 5773 5772 5771 5770 5769 5768 5767 5766 5765
5797 5797 5797 5798 5798 5798 5798 5799 5799 5799 5800 5800 5800 5801 5801 5802 5803 5803 5803 5804 5804 5804 5805 5805 5806 5806 5806 5806 5806 5806 5805 5805 5805 5805 5805 5805 5804 5804 5804 5803 5803 5803 5802 5801 5800 5800 5799 5798 5798 5797 5797 5796 5796 5795 5794 5794 5793 5792 5791 5791 5790 5789 5787 5786 5786 5785 5784 5783 5782 5781 5779 5778 5776 5775 5773 5772 5771 5770 5770 5769 5768 5766 5765 5764 5763
5796 5796 5797 5797 5798 5798 5798 5798 5798 5798 5798 5799 5799 5799 5800 5800 5801 5801 5802 5802 5802 5803 5803 5804 5804 5805 5804 5804 5804 5804 5804 5804 5804 5804 5804 5804 5803 5803 5802 5802 5802 5802 5801 5800 5800 5799 5798 5798 5798 5797 5797 5796 5795 5795 5794 5793 5792 5791 5791 5790 5788 5787 5786 5785 5784 5784 5783 5782 5780 5779 5777 5776 5775 5773 5772 5771 5769 5768 5768 5767 5766 5765 5763 5762 5761
5795 5795 5796 5797 5797 5797 5797 5797 5798 5798 5798 5798 5798 5798 5798 5798 5799 5799 5800 5800 5801 5801 5802 5802 5803 5803 5803 5803 5803 5803 5803 5803 5803 5803 5803 5803 5802 5802 5801 5801 5801 5800 5800 5799 5799 5798 5798 5797 5797 5797 5797 5796 5795 5794 5793 5792 5791 5790 5789 5788 5787 5786 5785 5784 5783 5782 5781 5780 5779 5777 5775 5774 5773 5772 5770 5769 5768 5767 5766 5765 5764 5763 5761 5760 5758
5793 5793 5795 5796 5797 5796 5796 5797 5797 5797 5797 5797 5797 5796 5797 5797 5797 5798 5798 5799 5799 5800 5800 5801 5801 5802 5802 5802 5802 5802 5802 5802 5802 5802 5802 5801 5801 5801 5800 5800 5799 5799 5798 5798 5798 5797 5797 5797 5796 5796 5796 5795 5794 5792 5791 5790 5789 5788 5787 5786 5785 5784 5783 5782 5781 5780 5779 5778 5776 5775 5773 5772 5771 5770 5768 5767 5766 5765 5763 5762 5761 5760 5758 5757 5755
5792 5791 5793 5794 5795 5795 5795 5796 5796 5796 5796 5796 5796 5795 5795 5796 5796 5796 5797 5797 5797 5798 5798 5799 5800 5800 5800 5801 5801 5801 5801 5801 5801 5800 5800 5800 5800 5799 5798 5798 5798 5797 5797 5796 5796 5796 5796 5795 5795 5795 5794 5793 5792 5791 5789 5788 5787 5786 5785 5784 5783 5782 5781 5780 5779 5777 5776 5775 5774 5772 5771 5769 5768 5767 5766 5764 5763 5762 5760 5759 5757 5756 5754 5752 5750
5791 5789 5790 5792 5792 5792 5793 5794 5794 5795 5795 5795 5794 5794 5794 5795 5795 5795 5795 5796 5796 5796 5797 5797 5798 5799 5799 5799 5799 5799 5799 5799 5799 5799 5799 5799 5798 5797 5797 5796 5796 5796 5795 5795 5794 5794 5794 5794 5793 5793 5792 5791 5790 5788 5787 5786 5785 5784 5783 5782 5781 5780 5779 5778 5777 5775 5773 5772 5771 5769 5768 5766 5765 5764 5762 5761 5760 5758 5756 5755 5753 5751 5749 5747 5745
5791 5789 5789 5790 5790 5789 5790 5791 5792 5793 5793 5793 5793 5793 5793 5793 5794 5794 5794 5795 5795 5795 5796 5796 5797 5797 5798 5798 5798 5798 5798 5798 5798 5798 5797 5797 5796 5796 5795 5795 5794 5794 5793 5793 5793 5792 5792 5792 5791 5790 5789 5788 5787 5786 5784 5783 5782 5781 5780 5780 5779 5777 5776 5775 5774 5773 5771 5769 5768 5766 5765 5763 5762 5760 5759 5757 5755 5754 5752 5750 5749 5746 5744 5742 5740
5791 5790 5789 5789 5788 5787 5787 5788 5789 5790 5791 5791 5791 5791 5792 5792 5793 5793 5794 5794 5794 5795 5795 5795 5796 5796 5797 5797 5797 5797 5797 5797 5796 5796 5796 5795 5795 5794 5793 5793 5792 5792 5791 5791 5791 5790 5790 5789 5788 5787 5786 5785 5784 5783 5782 5781 5780 5778 5777 5777 5775 5774 5773 5771 5770 5769 5768 5766 5764 5762 5761 5759 5758 5756 5754 5753 5751 5749 5747 5745 5744 5741 5739 5737 5734
5788 5788 5787 5787 5787 5786 5786 5786 5787 5788 5789 5789 5789 5790 5791 5791 5792 5792 5793 5793 5794 5794 5794 5795 5795 5795 5795 5796 5795 5795 5795 5795 5794 5794 5794 5793 5792 5792 5791 5791 5790 5790 5789 5789 5788 5788 5788 5787 5785 5784 5783 5782 5781 5780 5779 5778 5777 5776 5774 5773 5772 5770 5769 5767 5766 5765 5763 5762 5760 5758 5756 5755 5753 5751 5750 5748 5746 5744 5742 5740 5738 5736 5733 5730 5728
5785 5786 5786 5787 5787 5787 5787 5787 5788 5788 5788 5788 5788 5789 5789 5790 5791 5791 5792 5792 5793 5793 5794 5794 5794 5794 5794 5794 5794 5793 5793 5793 5792 5792 5791 5791 5790 5790 5789 5789 5789 5788 5787 5786 5786 5786 5786 5784 5783 5782 5781 5780 5779 5778 5776 5775 5773 5772 5771 5770 5768 5767 5765 5763 5761 5760 5758 5757 5755 5753 5751 5749 5748 5746 5744 5742 5740 5738 5736 5734 5731 5729 5727 5724 5720
5784 5784 5784 5785 5786 5786 5786 5786 5787 5787 5787 5787 5787 5787 5788 5789 5789 5790 5791 5791 5792 5792 5792 5792 5792 5792 5792 5792 5792 5791 5791 5790 5790 5789 5789 5788 5788 5787 5787 5787 5787 5786 5785 5784 5784 5784 5783 5782 5781 5780 5779 5777 5776 5775 5773 5771 5770 5768 5767 5766 5764 5763 5761 5759 5757 5755 5753 5751 5749 5747 5745 5743 5741 5740 5738 5736 5734 5732 5729 5727 5724 5722 5720 5716 5712
5782 5780 5781 5783 5784 5784 5783 5784 5784 5784 5785 5786 5786 5786 5787 5787 5787 5788 5789 5790 5790 5790 5790 5790 5790 5790 5790 5789 5789 5789 5788 5788 5787 5787 5787 5786 5786 5785 5785 5785 5785 5783 5782 5782 5782 5781 5780 5779 5777 5776 5775 5774 5773 5771 5769 5768 5766 5765 5763 5762 5760 5758 5756 5754 5752 5749 5747 5745 5743 5741 5739 5737 5735 5733 5731 5728 5726 5724 5721 5719 5717 5714 5712 5709 5705
5779 5777 5777 5780 5782 5782 5782 5782 5782 5782 5784 5785 5785 5785 5785 5785 5785 5786 5787 5788 5788 5788 5788 5788 5788 5788 5787 5787 5786 5786 5785 5785 5785 5785 5785 5784 5783 5782 5782 5782 5782 5781 5780 5779 5778 5778 5777 5775 5773 5772 5772 5770 5769 5767 5766 5764 5763 5761 5759 5758 5756 5754 5752 5749 5747 5744 5742 5740 5737 5735 5733 5731 5728 5726 5723 5721 5719 5716 5713 5711 5708 5706 5703 5700 5697
5776 5775 5775 5776 5778 5780 5780 5781 5781 5781 5783 5784 5784 5783 5783 5783 5783 5783 5784 5785 5785 5785 5785 5785 5785 5785 5785 5784 5783 5782 5782 5782 5782 5782 5781 5781 5780 5779 5779 5780 5779 5778 5777 5776 5774 5773 5772 5770 5769 5769 5768 5767 5766 5764 5762 5760 5758 5757 5755 5753 5751 5749 5747 5745 5742 5739 5737 5734 5732 5729 5727 5725 5722 5720 5717 5714 5712 5709 5706 5703 5701 5697 5693 5690 5688
5774 5774 5774 5775 5776 5777 5778 5779 5779 5779 5781 5782 5782 5782 5781 5780 5780 5780 5781 5781 5782 5783 5783 5782 5782 5782 5781 5781 5780 5779 5779 5779 5779 5778 5777 5777 5776 5776 5776 5776 5775 5774 5773 5771 5770 5769 5768 5766 5766 5765 5764 5763 5761 5760 5758 5756 5754 5752 5749 5747 5745 5744 5742 5739 5737 5734 5731 5729 5726 5724 5721 5719 5716 5714 5711 5708 5705 5702 5699 5696 5693 5689 5685 5681 5678
5773 5773 5772 5772 5772 5774 5776 5777 5776 5776 5778 5779 5780 5779 5778 5777 5777 5777 5778 5779 5779 5780 5780 5780 5779 5778 5777 5777 5776 5776 5776 5776 5775 5774 5773 5773 5773 5773 5773 5772 5771 5769 5768 5767 5766 5765 5764 5763 5762 5761 5760 5758 5756 5754 5752 5750 5748 5746 5743 5741 5740 5739 5737 5734 5731 5729 5726 5723 5720 5718 5715 5713 5710 5707 5704 5701 5698 5695 5692 5689 5685 5681 5677 5673 5671
5773 5772 5771 5769 5768 5769 5772 5774 5774 5774 5775 5776 5776 5776 5775 5774 5774 5774 5775 5776 5776 5776 5776 5776 5776 5774 5774 5774 5774 5774 5774 5773 5771 5769 5769 5769 5769 5769 5769 5768 5766 5765 5764 5763 5762 5760 5759 5758 5757 5756 5754 5752 5750 5749 5747 5745 5742 5740 5738 5736 5735 5734 5731 5729 5727 5723 5719 5717 5715 5712 5708 5706 5703 5700 5696 5693 5691 5688 5685 5681 5677 5673 5669 5666 5664
5769 5769 5769 5769 5767 5767 5768 5770 5771 5772 5772 5771 5771 5771 5771 5771 5772 5772 5772 5772 5773 5773 5772 5771 5771 5771 5771 5771 5771 5771 5770 5769 5766 5764 5765 5765 5764 5764 5764 5763 5762 5760 5759 5758 5757 5755 5754 5753 5752 5751 5749 5746 5744 5742 5740 5739 5736 5734 5733 5730 5728 5726 5724 5722 5721 5718 5714 5711 5709 5706 5703 5699 5696 5693 5689 5686 5683 5680 5675 5672 5668 5665 5662 5660 5657
5763 5764 5765 5766 5766 5765 5766 5767 5767 5767 5767 5766 5766 5766 5767 5767 5768 5768 5769 5769 5769 5769 5768 5767 5766 5766 5767 5768 5768 5767 5766 5764 5762 5760 5760 5760 5759 5759 5758 5757 5757 5756 5754 5753 5751 5750 5749 5748 5746 5745 5742 5739 5737 5735 5732 5732 5730 5728 5727 5725 5722 5720 5717 5714 5712 5710 5710 5707 5701 5697 5696 5693 5688 5685 5682 5678 5674 5671 5667 5664 5661 5658 5656 5654 5651
5759 5760 5760 5761 5762 5762 5763 5763 5763 5763 5762 5760 5759 5760 5762 5763 5763 5764 5765 5765 5765 5765 5765 5763 5762 5761 5761 5762 5762 5763 5762 5760 5758 5756 5756 5756 5755 5754 5753 5753 5752 5750 5749 5748 5746 5745 5743 5742 5740 5739 5737 5734 5731 5729 5727 5727 5725 5723 5721 5719 5717 5714 5711 5709 5704 5701 5702 5702 5696 5690 5688 5685 5680 5677 5673 5669 5666 5662 5659 5656 5654 5652 5650 5647 5645
5756 5756 5756 5757 5757 5758 5758 5759 5759 5758 5757 5755 5754 5755 5757 5759 5759 5760 5760 5761 5761 5761 5760 5760 5759 5757 5756 5756 5757 5757 5757 5756 5754 5752 5751 5750 5750 5749 5749 5748 5747 5745 5744 5743 5742 5740 5739 5737 5734 5733 5731 5729 5727 5724 5723 5722 5720 5718 5715 5713 5711 5708 5705 5703 5699 5694 5693 5693 5689 5684 5680 5676 5672 5668 5665 5661 5658 5655 5652 5650 5647 5645 5643 5641 5638
5751 5752 5752 5753 5753 5753 5754 5754 5754 5754 5753 5752 5752 5752 5753 5754 5755 5756 5756 5757 5758 5757 5756 5755 5755 5754 5753 5752 5752 5751 5751 5750 5749 5748 5746 5745 5744 5744 5744 5743 5742 5741 5739 5737 5736 5735 5734 5732 5729 5727 5725 5724 5721 5719 5718 5716 5714 5712 5710 5707 5705 5702 5699 5696 5693 5689 5687 5684 5680 5676 5672 5668 5664 5660 5657 5654 5651 5648 5646 5644 5641 5639 5637 5635 5632
5745 5747 5748 5748 5749 5749 5749 5750 5750 5751 5750 5750 5749 5749 5749 5750 5750 5751 5752 5752 5752 5752 5751 5751 5751 5750 5749 5749 5748 5746 5746 5745 5744 5744 5743 5742 5741 5740 5738 5737 5736 5735 5734 5732 5731 5730 5728 5726 5724 5722 5720 5718 5716 5714 5712 5710 5708 5706 5703 5701 5698 5695 5692 5689 5686 5682 5680 5677 5673 5668 5664 5660 5656 5653 5650 5648 5645 5642 5640 5638 5636 5634 5631 5629 5626
5739 5741 5742 5743 5744 5745 5745 5745 5746 5746 5746 5746 5746 5745 5745 5745 5745 5746 5746 5747 5747 5746 5745 5745 5745 5745 5744 5744 5743 5743 5742 5741 5741 5740 5739 5737 5736 5734 5733 5731 5730 5729 5728 5726 5725 5723 5721 5719 5717 5716 5715 5713 5709 5708 5706 5703 5701 5699 5696 5694 5692 5689 5686 5683 5679 5675 5672 5669 5665 5661 5657 5653 5650 5647 5644 5642 5640 5638 5635 5633 5630 5628 5626 5623 5620
5734 5735 5736 5738 5739 5739 5740 5740 5740 5741 5741 5742 5741 5741 5741 5741 5741 5741 5742 5742 5742 5742 5741 5740 5740 5740 5739 5739 5738 5737 5737 5736 5736 5735 5733 5731 5730 5729 5727 5726 5725 5724 5722 5721 5719 5716 5715 5713 5711 5710 5710 5707 5703 5700 5699 5697 5694 5692 5690 5687 5684 5681 5678 5675 5671 5668 5664 5661 5657 5653 5650 5647 5644 5641 5639 5637 5635 5632 5630 5628 5625 5623 5620 5618 5615
5729 5729 5730 5731 5733 5734 5734 5735 5735 5735 5736 5736 5736 5736 5736 5736 5736 5736 5736 5736 5737 5736 5736 5735 5735 5735 5734 5734 5733 5731 5731 5730 5730 5728 5726 5725 5724 5723 5722 5721 5720 5718 5716 5714 5712 5710 5708 5706 5705 5705 5704 5701 5697 5695 5693 5690 5687 5685 5682 5679 5677 5674 5670 5667 5663 5659 5656 5653 5649 5646 5644 5641 5638 5636 5634 5631 5629 5627 5625 5623 5620 5617 5615 5612 5609
5724 5724 5724 5724 5726 5727 5727 5728 5729 5730 5730 5730 5730 5731 5731 5731 5731 5731 5731 5731 5731 5730 5730 5729 5728 5728 5728 5727 5727 5725 5725 5724 5724 5722 5721 5719 5718 5717 5716 5715 5714 5712 5710 5709 5707 5704 5702 5700 5699 5698 5697 5695 5693 5690 5686 5682 5680 5678 5675 5672 5669 5666 5662 5659 5656 5652 5648 5645 5642 5640 5637 5635 5633 5631 5628 5626 5624 5622 5620 5617 5615 5612 5609 5606 5603
5718 5719 5719 5719 5719 5720 5720 5721 5722 5723 5724 5725 5725 5726 5726 5726 5726 5725 5724 5724 5725 5724 5724 5723 5722 5722 5722 5721 5721 5720 5719 5718 5717 5716 5715 5713 5712 5712 5711 5709 5708 5705 5704 5703 5701 5699 5697 5695 5692 5691 5690 5688 5686 5684 5680 5675 5673 5670 5667 5664 5661 5658 5655 5651 5648 5645 5641 5639 5636 5634 5632 5630 5628 5626 5624 5622 5620 5617 5615 5612 5609 5607 5604 5601 5598
5712 5712 5712 5713 5713 5713 5713 5715 5716 5716 5717 5718 5719 5719 5719 5720 5720 5719 5718 5718 5718 5718 5718 5718 5717 5717 5716 5716 5715 5714 5713 5712 5711 5710 5709 5707 5706 5705 5704 5704 5702 5699 5697 5697 5695 5693 5691 5688 5685 5683 5682 5681 5678 5675 5672 5669 5665 5662 5659 5656 5653 5650 5647 5644 5641 5638 5636 5633 5632 5630 5628 5626 5624 5622 5620 5617 5615 5613 5610 5607 5605 5602 5599 5597 5593
5706 5706 5706 5706 5707 5707 5708 5709 5710 5710 5711 5712 5712 5713 5713 5714 5714 5713 5713 5712 5712 5712 5712 5712 5711 5710 5709 5709 5708 5707 5706 5706 5705 5704 5703 5701 5700 5699 5698 5697 5695 5693 5691 5690 5688 5686 5684 5682 5678 5675 5673 5671 5669 5666 5663 5661 5658 5655 5652 5650 5646 5643 5640 5637 5635 5633 5630 5629 5627 5625 5624 5622 5620 5618 5615 5613 5610 5608 5605 5603 5600 5598 5595 5592 5589